#timestamp,LO_Frequency,Hit,StdDev 
1669104015.6,286047013.0,Y
1669104035.4,286047005.5,P
1669104055.3,286047005.7,N
1669104075.1,286047007.6,P
1669104076.0,286047007.6,Y
1669104095.8,286047001.1,P
1669104115.7,286047000.8,N
1669104135.5,286046998.4,N
1669104155.3,286046998.2,N
1669104175.2,286047002.7,N
1669104195.0,286047002.5,N
1669104195.9,286047002.5,N
1669104215.8,286047002.9,N
1669104235.6,286047007.3,N
1669104255.4,286047006.2,N
1669104275.3,286047010.7,Y
1669104295.1,286047008.7,P
1669104315.9,286047012.4,P
1669104335.7,286047013.9,P
1669104355.5,286047012.7,N
1669104375.4,286047015.5,Y
1669104395.2,286047007.0,P
1669104415.0,286047008.9,P
1669104416.0,286047008.9,P
1669104435.8,286047008.3,Y
1669104455.6,286047000.3,P
1669104475.5,286047002.7,N
1669104495.3,286047001.3,N
1669104515.1,286047004.4,N
1669104535.9,286047003.0,N
1669104555.7,286047005.2,N
1669104575.6,286047004.8,N
1669104595.4,286047004.5,N
1669104615.2,286047007.5,Y
1669104635.1,286047005.1,P
1669104636.0,286047005.1,P
1669104655.8,286047007.6,P
1669104675.7,286047006.9,Y
1669104695.5,286047002.4,P
1669104715.3,286047002.0,N
1669104735.2,286047003.9,N
1669104755.0,286047005.5,Y
1669104755.9,286047005.5,P
1669104775.8,286047000.1,N
1669104795.6,286047001.4,N
1669104815.4,286047003.1,N
1669104835.3,286047005.5,N
1669104855.1,286047005.1,N
1669104875.9,286047006.1,Y
1669104895.7,286047005.2,P
1669104915.5,286047006.5,P
1669104935.4,286047008.8,P
1669104955.2,286047008.0,Y
1669104975.0,286047003.8,P
1669104976.0,286047003.8,P
1669104995.8,286047005.6,P
1669105015.6,286047003.2,Y
1669105035.5,286047002.7,P
1669105055.3,286047001.6,N
1669105075.1,286047003.7,N
1669105095.9,286047004.2,Y
1669105115.7,286047002.7,P
1669105135.6,286047002.6,P
1669105155.4,286047002.3,P
1669105175.2,286047002.5,Y
1669105195.1,286047000.1,P
1669105196.0,286047000.1,N
1669105215.8,286047002.1,N
1669105235.7,286047001.8,N
1669105255.5,286047003.9,Y
1669105275.3,286047002.3,P
1669105295.2,286047002.4,P
1669105315.0,286047002.0,P
1669105315.9,286047002.0,Y
1669105335.8,286047000.6,P
1669105355.6,286047002.4,P
1669105375.4,286047002.2,N
1669105395.3,286047002.2,Y
1669105415.1,286047002.6,P
1669105435.8,286047001.7,P
1669105455.7,286047001.8,P
1669105475.5,286047003.8,Y
1669105495.4,286047004.1,P
1669105515.2,286047005.1,P
1669105535.0,286047004.5,P
1669105535.9,286047004.5,Y
1669105555.8,286047001.3,P
1669105575.6,286047002.5,N
1669105595.5,286047004.3,P
1669105615.3,286047001.5,N
1669105635.1,286047001.4,N
1669105655.9,286047004.0,Y
1669105675.7,286047001.5,P
1669105695.5,286047003.9,P
1669105715.4,286047004.2,P
1669105735.2,286047002.6,N
1669105755.1,286047003.7,Y
1669105756.0,286047003.7,P
1669105775.8,286047004.4,P
1669105795.6,286047001.5,N
1669105815.5,286047003.2,N
1669105835.3,286047007.4,Y
1669105855.1,286047003.5,P
1669105875.9,286047004.8,P
1669105895.7,286047005.7,P
1669105915.6,286047006.7,Y
1669105935.4,286047005.5,P
1669105955.2,286047007.6,P
1669105975.1,286047007.6,P
1669105976.0,286047007.6,Y
1669105995.8,286047002.8,P
1669106015.7,286047002.6,N
1669106035.5,286047001.8,N
1669106055.3,286047004.4,N
1669106075.2,286047005.6,Y
1669106095.0,286047001.5,P
1669106095.9,286047001.5,N
1669106115.7,286047002.2,N
1669106135.6,286047001.8,N
1669106155.4,286047003.1,Y
1669106175.3,286047001.3,P
1669106195.1,286047004.1,P
1669106196.0,286047004.1,P
1669106215.8,286047006.0,Y
1669106235.7,286047004.9,P
1669106255.5,286047010.2,P
1669106275.4,286047012.2,P
1669106295.2,286047011.1,N
1669106315.0,286047011.4,Y
1669106315.9,286047011.4,P
1669106335.8,286047002.9,N
1669106355.6,286047008.6,N
1669106375.4,286047011.3,Y
1669106395.3,286047006.2,P
1669106415.1,286047010.2,P
1669106435.9,286047011.6,P
1669106455.7,286047012.6,Y
1669106475.5,286047010.1,P
1669106495.4,286047013.0,P
1669106515.2,286047015.6,P
1669106535.1,286047013.1,Y
1669106536.0,286047013.1,P
1669106555.8,286047006.0,P
1669106575.6,286047006.6,N
1669106595.5,286047010.2,Y
1669106615.3,286047000.1,P
1669106635.1,286047004.0,N
1669106655.9,286047009.2,N
1669106675.7,286047012.4,Y
1669106695.6,286047005.7,P
1669106715.4,286047006.7,P
1669106735.2,286047006.1,P
1669106755.1,286047008.8,Y
1669106756.0,286047008.8,P
1669106775.8,286047004.4,P
1669106795.6,286047004.8,N
1669106815.5,286047007.5,Y
1669106835.3,286046998.6,P
1669106855.2,286046998.1,N
1669106875.9,286047001.9,N
1669106895.7,286047004.2,N
1669106915.6,286047003.8,N
1669106935.4,286047002.6,N
1669106955.3,286047000.3,N
1669106975.1,286047000.3,N
1669106976.0,286047000.3,N
1669106995.8,286046999.7,N
1669107015.7,286047002.5,N
1669107035.5,286047004.7,N
1669107055.3,286047006.7,N
1669107075.2,286047008.9,Y
1669107095.0,286047006.2,P
1669107095.9,286047006.2,P
1669107115.8,286047006.1,P
1669107135.6,286047008.2,Y
1669107155.4,286047001.4,P
1669107175.3,286046999.9,N
1669107195.1,286047002.9,N
1669107215.8,286047003.1,N
1669107235.7,286047007.5,Y
1669107255.5,286047005.9,P
1669107275.4,286047001.7,N
1669107295.2,286047007.5,P
1669107315.0,286047008.8,Y
1669107315.9,286047008.8,P
1669107335.8,286047002.2,N
1669107355.6,286047002.2,N
1669107375.5,286046998.2,N
1669107395.3,286046998.5,N
1669107415.1,286046999.4,N
1669107435.9,286046997.0,N
1669107455.7,286046995.5,N
1669107475.5,286046993.7,N
1669107495.4,286046996.0,N
1669107515.2,286046996.7,N
1669107535.0,286046999.2,N
1669107536.0,286046999.2,N
1669107555.8,286046998.7,N
1669107575.6,286046993.7,N
1669107595.5,286046992.2,N
